This is the latest recevied weather packets stored in our database for station/object DL7AND-1. If no packets are shown the sender has not sent any weather packets the latest 10 day(s).
| Time | Temp. | Humidity | Pressure | Rain* | Wind** | Luminosity | Snow |
|---|---|---|---|---|---|---|---|
| 1777799168 | 25.56° C | - | 1003.3 hPa | 0 mm | - | - | - |
| 1777796769 | 23.89° C | - | 1003.3 hPa | 0 mm | - | - | - |
| 1777791968 | 21.67° C | - | 1003.6 hPa | 0 mm | - | - | - |
| 1777789569 | 22.22° C | - | 1003.6 hPa | 0 mm | - | - | - |
| 1777787792 | 24.44° C | - | 1003.5 hPa | 0 mm | - | - | - |
| 1777787169 | 24.44° C | - | 1003.7 hPa | 0 mm | - | - | - |
| 1777785393 | 23.89° C | - | 1003.6 hPa | 0 mm | - | - | - |
| 1777781793 | 16.67° C | - | 1003.6 hPa | 0 mm | - | - | - |
| 1777779968 | 17.22° C | - | 1003.7 hPa | 0 mm | - | - | - |
| 1777777569 | 17.22° C | - | 1003.5 hPa | 0 mm | - | - | - |
| 1777775793 | 17.78° C | - | 1003.8 hPa | 0 mm | - | - | - |
| 1777771589 | 18.33° C | - | 1004.2 hPa | 0 mm | - | - | - |
| 1777770369 | 18.33° C | - | 1004.3 hPa | 0 mm | - | - | - |
| 1777762593 | 20° C | - | 1005.3 hPa | 0 mm | - | - | - |
| 1777761969 | 20° C | - | 1005.4 hPa | 0 mm | - | - | - |
| 1777758369 | 20.56° C | - | 1005.6 hPa | 0 mm | - | - | - |
| 1777757793 | 20.56° C | - | 1005.5 hPa | 0 mm | - | - | - |
| 1777757189 | 20.56° C | - | 1005.7 hPa | 0 mm | - | - | - |
| 1777744590 | 24.44° C | - | 1006.3 hPa | 0 mm | - | - | - |
| 1777737966 | 25° C | - | 1006.9 hPa | 0 mm | - | - | - |
| 1777736766 | 25° C | - | 1007.1 hPa | 0 mm | - | - | - |
| 1777735917 | 25° C | - | 1007.4 hPa | 0 mm | - | - | - |
| 1777732878 | 25° C | - | 1008.2 hPa | 0 mm | - | - | - |
| 1777732257 | 25.56° C | - | 1008.3 hPa | 0 mm | - | - | - |
| 1777731678 | 25.56° C | - | 1008.5 hPa | 0 mm | - | - | - |
* Rain latest hour (hover to see other rain measurements)
** Current wind speed in m/s (hover to see current wind gust speed)